DECAYED

STARLINK-3763, 52556 (Decayed)

Orbit data source: Space-Track

STARLINK-3763, 52556 was a payload satellite owned by SpaceX/Seattle (US) in LEO that was launched on Fri, 13 May 2022 UTC via an FALCON 9 launch vehicle from the Air Force Western Test Range (AFWTR). Payload-class satellites include a variety of spacecraft equipped with specific instruments for various scientific and technological missions. These include communications satellites like Starlink; space stations such as the ISS; scientific satellites like the Hubble; Earth observation satellites from companies like Planet Labs, Umbra, and HawkEye 360; GPS; miniature CubeSats for education and research; and military/defense satellites.

Not visible in the next 10 days
Identifier
52556, 2022-051Z
Orbit
Decayed
Country
Flag of USUS
Related business
Manufacturer
SpaceX/Seattle
Mission
Decayed Commercial Communications
Bus & Motor
STARLINK, Unknown motor
Mass
297 kg wet, ~275 kg dry
Launch date (UTC)
2022-05-13 (4 years ago)
Launch vehicle
FALCON 9
Launch site
Air Force Western Test Range (AFWTR)
Object type
Payload
Rocket body
Debris
Shape & HBR
Box + 1 Pan, 10.1 m
Radar Cross Section
13.562 m², Large (>1 m²)

Expand to show TLE details & history
Last TLE update: 5 months ago

TLE from 5 months ago
0 STARLINK-3763
1 52556U 22051Z   26031.84147898  .07956691  12074-4  19732-2 0  9999
2 52556  53.1616 164.7684 0007733 294.9702  65.0537 16.28319472207701
Epoch: 2026-01-31T20:11Z
TLE epoch observation values (Epoch: 2026-01-31T20:11:43.783Z)
Latitude
-0.00008°
Longitude
90.77623°
Altitude
195.856 km
Speed
7.791 km/s
True Right ascension
10h 59m 04s
True Declination
0° 00' 00"
Sunlit
Object was in full shadow at epoch
Visualization orbit readout
Latitude
Unknown
Longitude
Unknown
Altitude
Unknown
Speed
Unknown
Apparent Right ascension
Unknown
Apparent Declination
Unknown
Sunlit
N/A
Visualization observer readout
Local Sidereal Time
21:32:27
Azimuth
Unknown
Elevation
Unknown
Doppler factor
Unknown
Orbital elements
Apogee altitude
202.411 km
Perigee altitude
192.242 km
Semi-major axis
6,575.464 km
Eccentricity
0.00077
Inclination
53.1616°
RAAN
164.7684°
Arg. of periapsis
294.9702°
True anomaly
65.13408°
Mean anomaly
65.0537°
Eccentric anomaly
65.09389°
Mean motion
4.07055 °/min
Orbital period
88.44 mins
BSTAR
0.0019732
Loading maneuver chart data...
Computing Atmospheric mass density...
Loading historical data...
Loading historical data...
Loading historical data...
Loading historical data...
Loading historical data...
Loading historical data...
Loading historical data...

Documentation

Showing up to 5 results
|